Time,TemperatureF,DewpointF,PressureIn,WindDirection,WindDirectionDegrees,WindSpeedMPH,WindSpeedGustMPH,Humidity,HourlyPrecipIn,Conditions,Clouds,dailyrainin,SoftwareType,DateUTC
2013-09-11 00:06:00,72.7,56.0,30.05,SE,132,0.0,0.0,57,0.00,,,0.00,weatherlink.com 1.10,2013-09-11 05:06:00,
2013-09-11 00:21:00,70.5,57.0,30.05,SE,132,0.0,0.0,63,0.00,,,0.00,weatherlink.com 1.10,2013-09-11 05:21:00,
2013-09-11 00:36:00,68.6,57.0,30.05,SE,132,0.0,0.0,66,0.00,,,0.00,weatherlink.com 1.10,2013-09-11 05:36:00,
2013-09-11 00:51:00,67.7,57.0,30.05,SE,132,0.0,0.0,68,0.00,,,0.00,weatherlink.com 1.10,2013-09-11 05:51:00,
2013-09-11 01:06:00,67.2,56.0,30.05,SE,133,0.0,0.0,68,0.00,,,0.00,weatherlink.com 1.10,2013-09-11 06:06:00,
2013-09-11 01:21:00,67.0,57.0,30.06,SE,132,0.0,0.0,70,0.00,,,0.00,weatherlink.com 1.10,2013-09-11 06:21:00,
2013-09-11 01:36:00,66.6,57.0,30.06,SE,133,0.0,0.0,71,0.00,,,0.00,weatherlink.com 1.10,2013-09-11 06:36:00,
2013-09-11 01:51:00,66.0,57.0,30.07,SE,132,0.0,0.0,73,0.00,,,0.00,weatherlink.com 1.10,2013-09-11 06:51:00,
2013-09-11 02:06:00,65.9,57.0,30.07,SE,132,0.0,0.0,73,0.00,,,0.00,weatherlink.com 1.10,2013-09-11 07:06:00,
2013-09-11 02:21:00,65.8,57.0,30.07,SE,132,0.0,0.0,72,0.00,,,0.00,weatherlink.com 1.10,2013-09-11 07:21:00,
2013-09-11 02:36:00,66.0,57.0,30.07,SE,132,0.0,0.0,72,0.00,,,0.00,weatherlink.com 1.10,2013-09-11 07:36:00,
2013-09-11 02:51:00,67.1,57.0,30.07,SE,134,0.0,0.0,70,0.00,,,0.00,weatherlink.com 1.10,2013-09-11 07:51:00,
2013-09-11 03:06:00,67.9,57.0,30.07,SSE,148,0.0,1.0,69,0.00,,,0.00,weatherlink.com 1.10,2013-09-11 08:06:00,
2013-09-11 03:21:00,67.1,57.0,30.07,SSE,148,0.0,0.0,70,0.00,,,0.00,weatherlink.com 1.10,2013-09-11 08:21:00,
2013-09-11 03:36:00,66.3,57.0,30.07,SSE,148,0.0,0.0,72,0.00,,,0.00,weatherlink.com 1.10,2013-09-11 08:36:00,
2013-09-11 03:51:00,66.4,57.0,30.07,SSE,162,0.0,0.0,72,0.00,,,0.00,weatherlink.com 1.10,2013-09-11 08:51:00,
2013-09-11 04:06:00,65.8,57.0,30.07,SSE,162,0.0,0.0,73,0.00,,,0.00,weatherlink.com 1.10,2013-09-11 09:06:00,
2013-09-11 04:21:00,65.0,57.0,30.07,SSE,162,0.0,-999.0,75,-99.99,,,0.00,weatherlink.com 1.10,2013-09-11 09:21:00,
2013-09-11 04:36:00,64.3,57.0,30.07,SSE,162,0.0,0.0,76,0.00,,,0.00,weatherlink.com 1.10,2013-09-11 09:36:00,
2013-09-11 04:51:00,63.7,57.0,30.07,SSE,162,0.0,0.0,78,0.00,,,0.00,weatherlink.com 1.10,2013-09-11 09:51:00,
2013-09-11 05:06:00,63.3,57.0,30.06,SSE,162,0.0,0.0,79,0.00,,,0.00,weatherlink.com 1.10,2013-09-11 10:06:00,
2013-09-11 05:21:00,-999.0,-99.9,30.06,North,-999,-999.0,-999.0,-999,0.00,,,0.00,weatherlink.com 1.10,2013-09-11 10:21:00,
2013-09-11 05:36:00,-999.0,-99.9,30.07,North,-999,-999.0,-999.0,-999,0.00,,,0.00,weatherlink.com 1.10,2013-09-11 10:36:00,
2013-09-11 05:51:00,-999.0,-99.9,30.07,North,-999,-999.0,-999.0,-999,0.00,,,0.00,weatherlink.com 1.10,2013-09-11 10:51:00,
2013-09-11 06:06:00,-999.0,-99.9,30.08,North,-999,-999.0,-999.0,-999,0.00,,,0.00,weatherlink.com 1.10,2013-09-11 11:06:00,
2013-09-11 06:21:00,-999.0,-99.9,30.08,North,-999,-999.0,-999.0,-999,0.00,,,0.00,weatherlink.com 1.10,2013-09-11 11:21:00,
2013-09-11 06:37:00,-999.0,-99.9,30.09,North,-999,-999.0,-999.0,-999,0.00,,,0.00,weatherlink.com 1.10,2013-09-11 11:37:00,
2013-09-11 06:52:00,-999.0,-99.9,30.09,North,-999,-999.0,-999.0,-999,0.00,,,0.00,weatherlink.com 1.10,2013-09-11 11:52:00,
2013-09-11 07:07:00,-999.0,-99.9,30.09,North,-999,-999.0,-999.0,-999,0.00,,,0.00,weatherlink.com 1.10,2013-09-11 12:07:00,
2013-09-11 07:22:00,-999.0,-99.9,30.09,North,-999,-999.0,-999.0,-999,0.00,,,0.00,weatherlink.com 1.10,2013-09-11 12:22:00,
2013-09-11 07:37:00,-999.0,-99.9,30.09,North,-999,-999.0,-999.0,-999,0.00,,,0.00,weatherlink.com 1.10,2013-09-11 12:37:00,
2013-09-11 07:52:00,-999.0,-99.9,30.10,North,-999,-999.0,-999.0,-999,0.00,,,0.00,weatherlink.com 1.10,2013-09-11 12:52:00,
2013-09-11 08:07:00,66.0,61.0,30.10,SSE,162,0.0,0.0,83,0.00,,,0.00,weatherlink.com 1.10,2013-09-11 13:07:00,
2013-09-11 08:22:00,69.7,63.0,30.11,SSE,162,0.0,0.0,79,0.00,,,0.00,weatherlink.com 1.10,2013-09-11 13:22:00,
2013-09-11 08:37:00,75.6,65.0,30.11,SSE,162,0.0,0.0,70,0.00,,,0.00,weatherlink.com 1.10,2013-09-11 13:37:00,
2013-09-11 08:52:00,78.7,65.0,30.11,SE,138,0.0,2.0,64,0.00,,,0.00,weatherlink.com 1.10,2013-09-11 13:52:00,
2013-09-11 09:07:00,79.7,66.0,30.11,SSE,149,0.0,2.0,63,0.00,,,0.00,weatherlink.com 1.10,2013-09-11 14:07:00,
2013-09-11 09:22:00,81.6,66.0,30.11,SSW,208,0.0,3.0,60,0.00,,,0.00,weatherlink.com 1.10,2013-09-11 14:22:00,
2013-09-11 09:37:00,83.0,67.0,30.12,ESE,107,3.0,5.0,59,0.00,,,0.00,weatherlink.com 1.10,2013-09-11 14:37:00,
2013-09-11 09:52:00,84.0,68.0,30.12,SE,137,2.0,5.0,58,0.00,,,0.00,weatherlink.com 1.10,2013-09-11 14:52:00,
2013-09-11 10:07:00,85.4,68.0,30.12,WSW,253,4.0,7.0,57,0.00,,,0.00,weatherlink.com 1.10,2013-09-11 15:07:00,
2013-09-11 10:22:00,86.3,69.0,30.12,SSE,150,2.0,5.0,56,0.00,,,0.00,weatherlink.com 1.10,2013-09-11 15:22:00,
2013-09-11 10:37:00,87.1,69.0,30.12,SSW,205,1.0,7.0,55,0.00,,,0.00,weatherlink.com 1.10,2013-09-11 15:37:00,
2013-09-11 10:52:00,87.7,68.0,30.12,SW,217,3.0,7.0,53,0.00,,,0.00,weatherlink.com 1.10,2013-09-11 15:52:00,
2013-09-11 11:07:00,88.3,67.0,30.12,SW,230,4.0,10.0,50,0.00,,,0.00,weatherlink.com 1.10,2013-09-11 16:07:00,
2013-09-11 11:22:00,89.5,68.0,30.11,SE,144,1.0,8.0,49,0.00,,,0.00,weatherlink.com 1.10,2013-09-11 16:22:00,
2013-09-11 11:37:00,90.6,68.0,30.11,South,184,1.0,8.0,48,0.00,,,0.00,weatherlink.com 1.10,2013-09-11 16:37:00,
2013-09-11 11:52:00,89.8,67.0,30.10,SW,221,9.0,11.0,47,0.00,,,0.00,weatherlink.com 1.10,2013-09-11 16:52:00,
2013-09-11 12:07:00,90.5,67.0,30.10,SSW,205,3.0,10.0,46,0.00,,,0.00,weatherlink.com 1.10,2013-09-11 17:07:00,
2013-09-11 12:22:00,91.4,67.0,30.10,SE,142,10.0,14.0,45,0.00,,,0.00,weatherlink.com 1.10,2013-09-11 17:22:00,
2013-09-11 12:37:00,91.7,67.0,30.09,South,173,6.0,13.0,44,0.00,,,0.00,weatherlink.com 1.10,2013-09-11 17:37:00,
2013-09-11 12:52:00,92.7,67.0,30.09,SW,236,4.0,11.0,43,0.00,,,0.00,weatherlink.com 1.10,2013-09-11 17:52:00,
2013-09-11 13:07:00,92.8,67.0,30.09,SW,219,1.0,8.0,43,0.00,,,0.00,weatherlink.com 1.10,2013-09-11 18:07:00,
2013-09-11 13:22:00,93.5,67.0,30.08,ESE,108,2.0,7.0,42,0.00,,,0.00,weatherlink.com 1.10,2013-09-11 18:22:00,
2013-09-11 13:37:00,92.8,67.0,30.07,SSE,152,3.0,10.0,43,0.00,,,0.00,weatherlink.com 1.10,2013-09-11 18:37:00,
2013-09-11 13:52:00,93.2,66.0,30.07,NE,41,2.0,10.0,41,0.00,,,0.00,weatherlink.com 1.10,2013-09-11 18:52:00,
2013-09-11 14:07:00,93.1,67.0,30.05,SW,233,1.0,5.0,42,0.00,,,0.00,weatherlink.com 1.10,2013-09-11 19:07:00,
2013-09-11 14:22:00,94.9,67.0,30.05,ESE,119,3.0,9.0,40,0.00,,,0.00,weatherlink.com 1.10,2013-09-11 19:22:00,
2013-09-11 14:37:00,94.8,68.0,30.04,SE,127,6.0,8.0,41,0.00,,,0.00,weatherlink.com 1.10,2013-09-11 19:37:00,
2013-09-11 14:52:00,93.9,66.0,30.03,ESE,122,6.0,8.0,40,0.00,,,0.00,weatherlink.com 1.10,2013-09-11 19:52:00,
2013-09-11 15:07:00,94.1,66.0,30.02,SSW,195,3.0,10.0,40,0.00,,,0.00,weatherlink.com 1.10,2013-09-11 20:07:00,
2013-09-11 15:22:00,95.1,66.0,30.02,SW,233,2.0,10.0,38,0.00,,,0.00,weatherlink.com 1.10,2013-09-11 20:22:00,
2013-09-11 15:37:00,94.6,65.0,30.02,ESE,111,3.0,9.0,38,0.00,,,0.00,weatherlink.com 1.10,2013-09-11 20:37:00,
2013-09-11 15:52:00,96.1,65.0,30.01,SSW,200,8.0,11.0,36,0.00,,,0.00,weatherlink.com 1.10,2013-09-11 20:52:00,
2013-09-11 16:07:00,95.0,65.0,30.00,East,84,2.0,8.0,37,0.00,,,0.00,weatherlink.com 1.10,2013-09-11 21:07:00,
2013-09-11 16:22:00,96.2,65.0,30.00,SSE,156,0.0,6.0,36,0.00,,,0.00,weatherlink.com 1.10,2013-09-11 21:22:00,
2013-09-11 16:37:00,96.0,65.0,30.00,SSE,152,4.0,11.0,36,0.00,,,0.00,weatherlink.com 1.10,2013-09-11 21:37:00,
2013-09-11 16:52:00,95.2,65.0,29.99,South,190,3.0,8.0,37,0.00,,,0.00,weatherlink.com 1.10,2013-09-11 21:52:00,
2013-09-11 17:08:00,94.4,66.0,29.99,SE,143,4.0,10.0,39,0.00,,,0.00,weatherlink.com 1.10,2013-09-11 22:08:00,
2013-09-11 17:22:00,94.7,65.0,29.98,ESE,117,5.0,11.0,38,0.00,,,0.00,weatherlink.com 1.10,2013-09-11 22:22:00,
2013-09-11 17:37:00,94.6,65.0,29.98,SE,128,5.0,10.0,38,0.00,,,0.00,weatherlink.com 1.10,2013-09-11 22:37:00,
2013-09-11 17:52:00,92.9,66.0,29.98,SE,135,5.0,9.0,41,0.00,,,0.00,weatherlink.com 1.10,2013-09-11 22:52:00,
2013-09-11 18:07:00,93.3,65.0,29.98,SE,124,3.0,7.0,39,0.00,,,0.00,weatherlink.com 1.10,2013-09-11 23:07:00,
2013-09-11 18:22:00,93.1,64.0,29.98,SSE,156,2.0,8.0,38,0.00,,,0.00,weatherlink.com 1.10,2013-09-11 23:22:00,
2013-09-11 18:37:00,92.7,65.0,29.98,SSE,148,0.0,7.0,40,0.00,,,0.00,weatherlink.com 1.10,2013-09-11 23:37:00,
2013-09-11 18:52:00,92.0,65.0,29.98,SE,144,2.0,7.0,41,0.00,,,0.00,weatherlink.com 1.10,2013-09-11 23:52:00,
2013-09-11 19:07:00,90.8,65.0,29.98,ESE,121,1.0,3.0,43,0.00,,,0.00,weatherlink.com 1.10,2013-09-12 00:07:00,
2013-09-11 19:22:00,89.6,66.0,29.98,SE,140,0.0,2.0,45,0.00,,,0.00,weatherlink.com 1.10,2013-09-12 00:22:00,
2013-09-11 19:38:00,88.2,65.0,29.98,SE,126,1.0,5.0,47,0.00,,,0.00,weatherlink.com 1.10,2013-09-12 00:38:00,
2013-09-11 19:53:00,87.0,66.0,29.99,South,169,1.0,6.0,49,0.00,,,0.00,weatherlink.com 1.10,2013-09-12 00:53:00,
2013-09-11 20:08:00,85.5,65.0,30.00,SE,142,0.0,4.0,51,0.00,,,0.00,weatherlink.com 1.10,2013-09-12 01:08:00,
2013-09-11 20:23:00,83.7,65.0,30.00,SE,142,0.0,0.0,54,0.00,,,0.00,weatherlink.com 1.10,2013-09-12 01:23:00,
2013-09-11 20:38:00,81.8,65.0,30.01,SE,142,0.0,0.0,57,0.00,,,0.00,weatherlink.com 1.10,2013-09-12 01:38:00,
2013-09-11 20:53:00,80.2,64.0,30.01,SE,143,0.0,0.0,59,0.00,,,0.00,weatherlink.com 1.10,2013-09-12 01:53:00,
2013-09-11 21:08:00,79.4,64.0,30.01,SSE,165,0.0,1.0,60,0.00,,,0.00,weatherlink.com 1.10,2013-09-12 02:08:00,
2013-09-11 21:23:00,78.8,64.0,30.02,SSE,165,0.0,0.0,61,0.00,,,0.00,weatherlink.com 1.10,2013-09-12 02:23:00,
2013-09-11 21:38:00,77.9,65.0,30.03,NE,47,0.0,4.0,64,0.00,,,0.00,weatherlink.com 1.10,2013-09-12 02:38:00,
2013-09-11 21:53:00,79.0,65.0,30.03,SW,229,0.0,1.0,62,0.00,,,0.00,weatherlink.com 1.10,2013-09-12 02:53:00,
2013-09-11 22:08:00,78.6,65.0,30.03,SSW,200,0.0,1.0,63,0.00,,,0.00,weatherlink.com 1.10,2013-09-12 03:08:00,
2013-09-11 22:23:00,77.4,65.0,30.03,SSW,200,0.0,0.0,65,0.00,,,0.00,weatherlink.com 1.10,2013-09-12 03:23:00,
2013-09-11 22:38:00,75.9,64.0,30.03,SSW,200,0.0,0.0,67,0.00,,,0.00,weatherlink.com 1.10,2013-09-12 03:38:00,
2013-09-11 22:53:00,74.7,64.0,30.04,SSW,200,0.0,0.0,69,0.00,,,0.00,weatherlink.com 1.10,2013-09-12 03:53:00,
2013-09-11 23:08:00,73.6,64.0,30.04,SSW,199,0.0,0.0,71,0.00,,,0.00,weatherlink.com 1.10,2013-09-12 04:08:00,
2013-09-11 23:23:00,72.9,64.0,30.03,SSW,200,0.0,0.0,73,0.00,,,0.00,weatherlink.com 1.10,2013-09-12 04:23:00,
2013-09-11 23:38:00,72.4,64.0,30.03,SSW,199,0.0,0.0,74,0.00,,,0.00,weatherlink.com 1.10,2013-09-12 04:38:00,
2013-09-11 23:53:00,71.9,64.0,30.03,SSW,201,0.0,0.0,76,0.00,,,0.00,weatherlink.com 1.10,2013-09-12 04:53:00,